HYS277 LRCL-LROP

Flight info

Callsign HYS277
Flight time 0h 35m
Altitude 33000
Route IRLOX DCT BIVBU DCT TOSVI
Aircraft A320/M-SDE3FGHIRWY/LB1

Departure

Time 2026-05-06 09:28
Airport Avram Iancu Cluj International Airport (LRCL)

Arrival

Time 2026-05-06 10:04
Airport Bucharest Henri Coandă International Airport (LROP)
Time Latitude Longitude Altitude Speed Heading
2026-05-06 08:49 46.78484 23.69451 1025 ft 0 kts 72°
2026-05-06 08:50 46.78452 23.69595 1025 ft 0 kts 252°
2026-05-06 09:17 46.78454 23.69602 1025 ft 2 kts 266°
2026-05-06 09:17 46.78457 23.69624 1025 ft 2 kts 248°
2026-05-06 09:17 46.78460 23.69644 1025 ft 2 kts 285°
2026-05-06 09:18 46.78452 23.69663 1025 ft 2 kts 323°
2026-05-06 09:18 46.78445 23.69669 1025 ft 1 kts 345°
2026-05-06 09:18 46.78439 23.69671 1025 ft 0 kts 343°
2026-05-06 09:21 46.78442 23.69670 1025 ft 0 kts 343°
2026-05-06 09:21 46.78453 23.69665 1025 ft 3 kts 346°
2026-05-06 09:22 46.78492 23.69653 1026 ft 7 kts 347°
2026-05-06 09:22 46.78547 23.69633 1025 ft 9 kts 345°
2026-05-06 09:22 46.78618 23.69600 1023 ft 9 kts 336°
2026-05-06 09:22 46.78632 23.69517 1023 ft 9 kts 260°
2026-05-06 09:23 46.78618 23.69413 1024 ft 10 kts 258°
2026-05-06 09:23 46.78620 23.69304 1024 ft 11 kts 320°
2026-05-06 09:23 46.78700 23.69261 1024 ft 11 kts 341°
2026-05-06 09:23 46.78733 23.69176 1024 ft 10 kts 255°
2026-05-06 09:24 46.78708 23.69066 1026 ft 12 kts 252°
2026-05-06 09:24 46.78679 23.68938 1026 ft 13 kts 252°
2026-05-06 09:24 46.78648 23.68800 1026 ft 14 kts 251°
2026-05-06 09:24 46.78612 23.68643 1026 ft 19 kts 252°
2026-05-06 09:25 46.78570 23.68452 1029 ft 19 kts 252°
2026-05-06 09:25 46.78528 23.68264 1029 ft 19 kts 252°
2026-05-06 09:25 46.78484 23.68072 1029 ft 19 kts 253°
2026-05-06 09:25 46.78444 23.67887 1032 ft 18 kts 252°
2026-05-06 09:26 46.78404 23.67711 1033 ft 18 kts 252°
2026-05-06 09:26 46.78365 23.67540 1035 ft 17 kts 252°
2026-05-06 09:26 46.78340 23.67368 1035 ft 17 kts 259°
2026-05-06 09:26 46.78373 23.67229 1037 ft 14 kts 314°
2026-05-06 09:27 46.78442 23.67156 1038 ft 5 kts 345°
2026-05-06 09:27 46.78462 23.67184 1037 ft 0 kts 68°
2026-05-06 09:27 46.78462 23.67186 1037 ft 2 kts 68°
2026-05-06 09:27 46.78546 23.67546 1034 ft 77 kts 73°
2026-05-06 09:28 46.78787 23.68634 1028 ft 144 kts 71°
2026-05-06 09:28 46.79129 23.70144 1463 ft 160 kts 73°
2026-05-06 09:28 46.79478 23.71646 2177 ft 161 kts 73°
2026-05-06 09:28 46.79829 23.73184 2925 ft 163 kts 72°
2026-05-06 09:29 46.80198 23.74795 3450 ft 179 kts 73°
2026-05-06 09:29 46.80608 23.76601 3977 ft 197 kts 73°
2026-05-06 09:29 46.81047 23.78566 4474 ft 218 kts 73°
2026-05-06 09:29 46.81535 23.80765 5104 ft 235 kts 73°
2026-05-06 09:30 46.82062 23.83086 5708 ft 253 kts 73°
2026-05-06 09:30 46.82625 23.85614 6303 ft 272 kts 73°
2026-05-06 09:30 46.83218 23.88278 6862 ft 282 kts 73°
2026-05-06 09:30 46.83788 23.90999 7112 ft 286 kts 81°
2026-05-06 09:31 46.83635 23.93859 7877 ft 285 kts 114°
2026-05-06 09:31 46.82487 23.96082 8820 ft 281 kts 144°
2026-05-06 09:31 46.80779 23.97340 9716 ft 280 kts 162°
2026-05-06 09:31 46.78958 23.98308 10731 ft 278 kts 161°
2026-05-06 09:32 46.77214 23.99280 11925 ft 268 kts 160°
2026-05-06 09:32 46.75493 24.00280 12852 ft 268 kts 159°
2026-05-06 09:32 46.73789 24.01291 13636 ft 271 kts 158°
2026-05-06 09:32 46.72035 24.02346 14393 ft 276 kts 158°
2026-05-06 09:33 46.70251 24.03425 15133 ft 280 kts 158°
2026-05-06 09:33 46.68473 24.04503 15861 ft 283 kts 158°
2026-05-06 09:33 46.66648 24.05609 16589 ft 286 kts 158°
2026-05-06 09:33 46.64801 24.06727 17294 ft 290 kts 158°
2026-05-06 09:34 46.62953 24.07844 17978 ft 293 kts 158°
2026-05-06 09:34 46.61074 24.08968 18630 ft 297 kts 158°
2026-05-06 09:34 46.59152 24.10112 19266 ft 302 kts 158°
2026-05-06 09:34 46.57208 24.11268 19882 ft 306 kts 158°
2026-05-06 09:35 46.55233 24.12443 20482 ft 311 kts 158°
2026-05-06 09:35 46.53202 24.13651 21079 ft 316 kts 158°
2026-05-06 09:35 46.51161 24.14865 21667 ft 321 kts 158°
2026-05-06 09:35 46.49087 24.16097 22247 ft 325 kts 158°
2026-05-06 09:36 46.47006 24.17332 22812 ft 329 kts 158°
2026-05-06 09:36 46.44888 24.18586 23378 ft 334 kts 158°
2026-05-06 09:36 46.42710 24.19875 23937 ft 338 kts 158°
2026-05-06 09:36 46.40530 24.21165 24482 ft 342 kts 158°
2026-05-06 09:37 46.38327 24.22467 25025 ft 346 kts 158°
2026-05-06 09:37 46.36100 24.23782 25562 ft 349 kts 158°
2026-05-06 09:37 46.33866 24.25101 26082 ft 352 kts 158°
2026-05-06 09:37 46.31569 24.26457 26575 ft 356 kts 158°
2026-05-06 09:38 46.29268 24.27813 27057 ft 359 kts 158°
2026-05-06 09:38 46.26982 24.29158 27530 ft 362 kts 158°
2026-05-06 09:38 46.24614 24.30553 28001 ft 366 kts 157°
2026-05-06 09:38 46.22357 24.32232 28442 ft 369 kts 148°
2026-05-06 09:39 46.20216 24.34252 28586 ft 372 kts 146°
2026-05-06 09:39 46.18086 24.36338 28471 ft 372 kts 146°
2026-05-06 09:39 46.15945 24.38414 28210 ft 369 kts 146°
2026-05-06 09:39 46.13826 24.40436 27947 ft 367 kts 146°
2026-05-06 09:40 46.11668 24.42466 27790 ft 372 kts 147°
2026-05-06 09:40 46.09442 24.44540 27714 ft 391 kts 147°
2026-05-06 09:40 46.04691 24.48934 27567 ft 425 kts 147°
2026-05-06 09:41 46.02153 24.51270 27489 ft 434 kts 147°
2026-05-06 09:41 45.99633 24.53584 27407 ft 435 kts 147°
2026-05-06 09:41 45.97083 24.55923 27338 ft 436 kts 147°
2026-05-06 09:41 45.94541 24.58251 27257 ft 435 kts 147°
2026-05-06 09:42 45.91983 24.60592 27182 ft 435 kts 147°
2026-05-06 09:42 45.89440 24.62918 27102 ft 434 kts 147°
2026-05-06 09:42 45.86914 24.65227 27022 ft 433 kts 147°
2026-05-06 09:42 45.84349 24.67567 26948 ft 433 kts 147°
2026-05-06 09:43 45.81821 24.69869 26872 ft 432 kts 147°
2026-05-06 09:43 45.79283 24.72180 26746 ft 433 kts 147°
2026-05-06 09:43 45.76787 24.74449 26427 ft 430 kts 147°
2026-05-06 09:43 45.74256 24.76746 26057 ft 427 kts 147°
2026-05-06 09:44 45.71778 24.78993 25645 ft 424 kts 147°
2026-05-06 09:44 45.69290 24.81248 25202 ft 420 kts 147°
2026-05-06 09:44 45.66845 24.83459 24774 ft 417 kts 147°
2026-05-06 09:44 45.64409 24.85662 24316 ft 413 kts 147°
2026-05-06 09:45 45.62032 24.87810 23891 ft 409 kts 147°
2026-05-06 09:45 45.59621 24.89987 23448 ft 406 kts 147°
2026-05-06 09:45 45.57248 24.92128 23028 ft 402 kts 147°
2026-05-06 09:45 45.54903 24.94240 22552 ft 399 kts 147°
2026-05-06 09:46 45.52584 24.96327 22125 ft 396 kts 147°
2026-05-06 09:46 45.50257 24.98418 21666 ft 393 kts 147°
2026-05-06 09:46 45.47979 25.00464 21222 ft 389 kts 147°
2026-05-06 09:46 45.45699 25.02510 20771 ft 386 kts 147°
2026-05-06 09:47 45.43449 25.04525 20317 ft 382 kts 147°
2026-05-06 09:47 45.41225 25.06516 19863 ft 379 kts 147°
2026-05-06 09:47 45.39010 25.08498 19440 ft 376 kts 147°
2026-05-06 09:47 45.36802 25.10470 19006 ft 373 kts 147°
2026-05-06 09:48 45.34615 25.12423 18568 ft 370 kts 147°
2026-05-06 09:48 45.32455 25.14351 18130 ft 367 kts 147°
2026-05-06 09:48 45.30302 25.16270 17685 ft 364 kts 146°
2026-05-06 09:48 45.28173 25.18167 17209 ft 362 kts 147°
2026-05-06 09:49 45.26055 25.20051 16712 ft 360 kts 147°
2026-05-06 09:49 45.23941 25.21929 16223 ft 359 kts 146°
2026-05-06 09:49 45.21835 25.23798 15732 ft 357 kts 146°
2026-05-06 09:49 45.19744 25.25655 15255 ft 355 kts 147°
2026-05-06 09:50 45.17671 25.27493 14772 ft 353 kts 146°
2026-05-06 09:50 45.15593 25.29332 14308 ft 350 kts 146°
2026-05-06 09:50 45.13534 25.31152 13833 ft 348 kts 146°
2026-05-06 09:50 45.11504 25.32946 13371 ft 345 kts 146°
2026-05-06 09:51 45.09472 25.34743 12889 ft 342 kts 146°
2026-05-06 09:51 45.07466 25.36514 12410 ft 340 kts 146°
2026-05-06 09:51 45.05467 25.38279 11930 ft 339 kts 146°
2026-05-06 09:51 45.03485 25.40026 11416 ft 337 kts 146°
2026-05-06 09:52 45.01503 25.41772 10927 ft 335 kts 146°
2026-05-06 09:52 44.99520 25.43516 10515 ft 330 kts 146°
2026-05-06 09:52 44.97626 25.45181 10317 ft 317 kts 146°
2026-05-06 09:52 44.95781 25.46799 10177 ft 304 kts 146°
2026-05-06 09:53 44.94039 25.48327 10044 ft 292 kts 146°
2026-05-06 09:53 44.92327 25.49829 9725 ft 288 kts 146°
2026-05-06 09:53 44.90617 25.51331 9343 ft 287 kts 146°
2026-05-06 09:53 44.88948 25.52796 9004 ft 285 kts 146°
2026-05-06 09:54 44.87257 25.54277 8729 ft 286 kts 147°
2026-05-06 09:54 44.85564 25.55758 8454 ft 286 kts 147°
2026-05-06 09:54 44.83875 25.57235 8180 ft 286 kts 147°
2026-05-06 09:54 44.82187 25.58711 7905 ft 285 kts 147°
2026-05-06 09:55 44.80512 25.60173 7634 ft 285 kts 147°
2026-05-06 09:55 44.78836 25.61634 7366 ft 284 kts 147°
2026-05-06 09:55 44.77159 25.63095 7093 ft 283 kts 147°
2026-05-06 09:55 44.75480 25.64556 6819 ft 282 kts 147°
2026-05-06 09:56 44.73826 25.65996 6551 ft 281 kts 148°
2026-05-06 09:56 44.72179 25.67428 6288 ft 281 kts 148°
2026-05-06 09:56 44.70518 25.68872 6019 ft 280 kts 148°
2026-05-06 09:56 44.68882 25.70291 5725 ft 278 kts 148°
2026-05-06 09:57 44.67244 25.71713 5428 ft 275 kts 148°
2026-05-06 09:57 44.65615 25.73128 5129 ft 274 kts 148°
2026-05-06 09:57 44.64000 25.74528 4834 ft 272 kts 148°
2026-05-06 09:57 44.62403 25.75905 4554 ft 270 kts 148°
2026-05-06 09:58 44.60808 25.77276 4254 ft 267 kts 148°
2026-05-06 09:58 44.59248 25.78619 3955 ft 259 kts 148°
2026-05-06 09:58 44.57739 25.79920 3657 ft 247 kts 148°
2026-05-06 09:58 44.56305 25.81161 3366 ft 241 kts 147°
2026-05-06 09:59 44.55133 25.82776 3058 ft 237 kts 118°
2026-05-06 09:59 44.54722 25.84934 2809 ft 227 kts 92°
2026-05-06 09:59 44.54819 25.87064 2561 ft 215 kts 82°
2026-05-06 09:59 44.55052 25.89077 2462 ft 199 kts 81°
2026-05-06 10:00 44.55236 25.90903 2416 ft 182 kts 83°
2026-05-06 10:00 44.55379 25.92602 2189 ft 167 kts 85°
2026-05-06 10:00 44.55486 25.94121 1977 ft 152 kts 85°
2026-05-06 10:00 44.55579 25.95528 1764 ft 138 kts 85°
2026-05-06 10:01 44.55671 25.96849 1594 ft 134 kts 85°
2026-05-06 10:01 44.55756 25.98130 1453 ft 133 kts 86°
2026-05-06 10:01 44.55848 25.99427 1323 ft 133 kts 84°
2026-05-06 10:01 44.55941 26.00710 1183 ft 133 kts 85°
2026-05-06 10:02 44.56046 26.01984 1027 ft 132 kts 84°
2026-05-06 10:02 44.56148 26.03277 879 ft 132 kts 84°
2026-05-06 10:02 44.56233 26.04545 716 ft 131 kts 85°
2026-05-06 10:02 44.56325 26.05826 567 ft 131 kts 83°
2026-05-06 10:03 44.56422 26.07088 411 ft 130 kts 85°
2026-05-06 10:03 44.56514 26.08323 308 ft 123 kts 84°
2026-05-06 10:03 44.56590 26.09317 306 ft 78 kts 84°
2026-05-06 10:03 44.56638 26.09918 306 ft 54 kts 81°
2026-05-06 10:04 44.56660 26.10225 303 ft 19 kts 85°
2026-05-06 10:04 44.56676 26.10433 303 ft 24 kts 83°
2026-05-06 10:04 44.56694 26.10666 303 ft 23 kts 78°
2026-05-06 10:04 44.56764 26.10760 303 ft 14 kts 359°
2026-05-06 10:05 44.56869 26.10748 304 ft 15 kts 354°
2026-05-06 10:05 44.56972 26.10726 305 ft 15 kts 340°
2026-05-06 10:05 44.57042 26.10624 306 ft 15 kts 301°
2026-05-06 10:05 44.57069 26.10483 306 ft 15 kts 265°
2026-05-06 10:06 44.57057 26.10330 306 ft 15 kts 264°
2026-05-06 10:06 44.57047 26.10187 307 ft 14 kts 263°
2026-05-06 10:06 44.57036 26.10050 307 ft 14 kts 264°
2026-05-06 10:06 44.57026 26.09917 308 ft 13 kts 264°
2026-05-06 10:07 44.57016 26.09797 310 ft 12 kts 263°
2026-05-06 10:07 44.57007 26.09676 310 ft 12 kts 264°
2026-05-06 10:07 44.56997 26.09547 310 ft 13 kts 264°
2026-05-06 10:07 44.56987 26.09411 310 ft 14 kts 264°
2026-05-06 10:08 44.56976 26.09264 308 ft 16 kts 263°
2026-05-06 10:08 44.56963 26.09094 306 ft 17 kts 263°
2026-05-06 10:08 44.56949 26.08921 306 ft 17 kts 264°
2026-05-06 10:08 44.56936 26.08761 305 ft 8 kts 264°
2026-05-06 10:09 44.56908 26.08719 305 ft 6 kts 180°
2026-05-06 10:09 44.56879 26.08723 305 ft 0 kts 174°